| time (UTC) | temp F | wind direction | speed MPH | gust MPH | rain 1hr in | rain 24hr in | rain mn in | humidity % | barometer mb |
| 20260902152515 | 90 | 203 | 4.0 | 8.0 | 0.00 | 0.00 | 0.00 | 57 | 1015.6 |
| 20260902151515 | 89 | 158 | 3.0 | 7.0 | 0.00 | 0.00 | 0.00 | 59 | 1015.6 |
| 20260902150517 | 89 | 158 | 3.0 | 8.0 | 0.00 | 0.00 | 0.00 | 60 | 1015.6 |
| 20260902145515 | 88 | 113 | 3.0 | 5.0 | 0.00 | 0.00 | 0.00 | 60 | 1015.5 |
| 20260902144517 | 87 | 203 | 2.0 | 5.0 | 0.00 | 0.00 | 0.00 | 62 | 1015.5 |
| 20260902143517 | 86 | 158 | 4.0 | 8.0 | 0.00 | 0.00 | 0.00 | 64 | 1015.4 |
| 20260902142517 | 86 | 135 | 5.0 | 9.0 | 0.00 | 0.00 | 0.00 | 65 | 1015.4 |
| 20260902141517 | 85 | 135 | 6.0 | 11.0 | 0.00 | 0.00 | 0.00 | 65 | 1015.5 |
| 20260902140517 | 85 | 135 | 5.0 | 9.0 | 0.00 | 0.00 | 0.00 | 66 | 1015.5 |
| 20260902135517 | 84 | 135 | 5.0 | 10.0 | 0.00 | 0.00 | 0.00 | 67 | 1015.6 |
| 20260902134517 | 84 | 135 | 4.0 | 7.0 | 0.00 | 0.00 | 0.00 | 68 | 1015.5 |
| 20260902133517 | 83 | 135 | 3.0 | 7.0 | 0.00 | 0.00 | 0.00 | 69 | 1015.4 |
| 20260902132517 | 82 | 113 | 2.0 | 4.0 | 0.00 | 0.00 | 0.00 | 70 | 1015.4 |
| 20260902131537 | 81 | 0.0 | 0.0 | 0.00 | 0.00 | 0.00 | 71 | 1015.3 | |
| 20260902130537 | 80 | 0.0 | 0.0 | 0.00 | 0.00 | 0.00 | 73 | 1015.3 | |
| 20260902125517 | 79 | 0.0 | 0.0 | 0.00 | 0.00 | 0.00 | 76 | 1015.1 | |
| 20260902124517 | 78 | 0.0 | 0.0 | 0.00 | 0.00 | 0.00 | 77 | 1015.1 | |
| 20260902123516 | 76 | 0.0 | 0.0 | 0.00 | 0.00 | 0.00 | 78 | 1015.0 | |
| 20260902122557 | 76 | 0.0 | 2.0 | 0.00 | 0.00 | 0.00 | 78 | 1015.0 | |
| 20260902121537 | 76 | 0.0 | 0.0 | 0.00 | 0.00 | 0.00 | 78 | 1014.9 | |
| 20260902120516 | 76 | 0.0 | 0.0 | 0.00 | 0.00 | 0.00 | 78 | 1014.9 | |
| 20260902115516 | 76 | 0.0 | 0.0 | 0.00 | 0.00 | 0.00 | 78 | 1014.9 | |
| 20260902114516 | 76 | 0.0 | 0.0 | 0.00 | 0.00 | 0.00 | 78 | 1014.8 | |
| 20260902113516 | 76 | 0.0 | 0.0 | 0.00 | 0.00 | 0.00 | 78 | 1014.8 | |
| 20260902112536 | 76 | 113 | 1.0 | 2.0 | 0.00 | 0.00 | 0.00 | 78 | 1014.8 |
| 20260902111516 | 76 | 113 | 2.0 | 3.0 | 0.00 | 0.00 | 0.00 | 77 | 1014.7 |
| 20260902110516 | 77 | 113 | 1.0 | 3.0 | 0.00 | 0.00 | 0.00 | 76 | 1014.7 |
| 20260902105516 | 78 | 0.0 | 0.0 | 0.00 | 0.00 | 0.00 | 75 | 1014.7 | |
| 20260902104517 | 78 | 0.0 | 0.0 | 0.00 | 0.00 | 0.00 | 75 | 1014.7 | |
| 20260902103516 | 78 | 0.0 | 0.0 | 0.00 | 0.00 | 0.00 | 74 | 1014.6 | |
| 20260902102516 | 79 | 0.0 | 0.0 | 0.00 | 0.00 | 0.00 | 74 | 1014.6 | |
| 20260902101516 | 79 | 0.0 | 0.0 | 0.00 | 0.00 | 0.00 | 73 | 1014.6 | |
| 20260902100516 | 79 | 0.0 | 0.0 | 0.00 | 0.00 | 0.00 | 73 | 1014.7 | |
| 20260902095517 | 79 | 0.0 | 0.0 | 0.00 | 0.00 | 0.00 | 73 | 1014.7 | |
| 20260902094516 | 80 | 0.0 | 0.0 | 0.00 | 0.00 | 0.00 | 72 | 1014.7 | |
| 20260902093516 | 80 | 0.0 | 0.0 | 0.00 | 0.00 | 0.00 | 71 | 1014.7 | |
| 20260902092517 | 80 | 135 | 1.0 | 3.0 | 0.00 | 0.00 | 0.00 | 71 | 1014.7 |
| 20260902091516 | 81 | 135 | 1.0 | 2.0 | 0.00 | 0.00 | 0.00 | 71 | 1014.8 |
| 20260902090516 | 81 | 135 | 2.0 | 3.0 | 0.00 | 0.00 | 0.00 | 70 | 1014.8 |
| 20260902085516 | 81 | 158 | 2.0 | 3.0 | 0.00 | 0.00 | 0.00 | 69 | 1014.9 |
| 20260902084516 | 82 | 135 | 2.0 | 4.0 | 0.00 | 0.00 | 0.00 | 69 | 1014.8 |
| 20260902083516 | 82 | 158 | 2.0 | 6.0 | 0.00 | 0.00 | 0.00 | 68 | 1014.9 |
| 20260902082516 | 82 | 158 | 3.0 | 6.0 | 0.00 | 0.00 | 0.00 | 68 | 1014.9 |
| 20260902081536 | 82 | 158 | 1.0 | 3.0 | 0.00 | 0.00 | 0.00 | 68 | 1015.0 |
| 20260902080516 | 82 | 158 | 2.0 | 3.0 | 0.00 | 0.00 | 0.00 | 68 | 1014.9 |
| 20260902075516 | 82 | 158 | 2.0 | 5.0 | 0.00 | 0.00 | 0.00 | 68 | 1014.9 |
| 20260902074516 | 82 | 158 | 2.0 | 4.0 | 0.00 | 0.00 | 0.00 | 68 | 1014.9 |
| 20260902073515 | 81 | 135 | 2.0 | 4.0 | 0.00 | 0.00 | 0.00 | 68 | 1014.9 |
| 20260902072515 | 81 | 135 | 2.0 | 4.0 | 0.00 | 0.00 | 0.00 | 68 | 1014.9 |
| 20260902071516 | 81 | 135 | 2.0 | 4.0 | 0.00 | 0.00 | 0.00 | 68 | 1014.8 |
| 20260902070515 | 81 | 135 | 2.0 | 3.0 | 0.00 | 0.00 | 0.00 | 68 | 1014.8 |
| 20260902065516 | 81 | 135 | 2.0 | 3.0 | 0.00 | 0.00 | 0.00 | 67 | 1014.8 |
| 20260902064515 | 81 | 0.0 | 0.0 | 0.00 | 0.00 | 0.00 | 66 | 1014.8 | |
| 20260902063515 | 81 | 0.0 | 0.0 | 0.00 | 0.00 | 0.00 | 66 | 1014.7 | |
| 20260902062515 | 82 | 0.0 | 0.0 | 0.00 | 0.00 | 0.00 | 65 | 1014.6 | |
| 20260902061515 | 82 | 0.0 | 0.0 | 0.00 | 0.00 | 0.00 | 65 | 1014.6 | |
| 20260902060515 | 82 | 0.0 | 1.0 | 0.00 | 0.00 | 0.00 | 65 | 1014.5 | |
| 20260902055535 | 82 | 113 | 1.0 | 2.0 | 0.00 | 0.00 | 0.00 | 64 | 1014.4 |
| 20260902054515 | 82 | 0.0 | 0.0 | 0.00 | 0.00 | 0.00 | 64 | 1014.2 | |
| 20260902053515 | 82 | 113 | 1.0 | 2.0 | 0.00 | 0.00 | 0.00 | 64 | 1014.2 |
| 20260902052515 | 83 | 0.0 | 0.0 | 0.00 | 0.00 | 0.00 | 63 | 1014.2 | |
| 20260902051517 | 83 | 0.0 | 1.0 | 0.00 | 0.00 | 0.00 | 63 | 1014.2 | |
| 20260902050517 | 83 | 113 | 1.0 | 2.0 | 0.00 | 0.00 | 0.00 | 62 | 1014.1 |
| 20260902045516 | 83 | 0.0 | 2.0 | 0.00 | 0.00 | 0.00 | 62 | 1014.2 | |
| 20260902044516 | 83 | 113 | 1.0 | 2.0 | 0.00 | 0.00 | 0.00 | 62 | 1014.2 |
| 20260902043516 | 84 | 0.0 | 0.0 | 0.00 | 0.00 | 0.00 | 61 | 1014.3 | |
| 20260902042516 | 84 | 0.0 | 0.0 | 0.00 | 0.00 | 0.00 | 60 | 1014.2 | |
| 20260902041516 | 84 | 0.0 | 0.0 | 0.00 | 0.00 | 0.00 | 60 | 1014.1 | |
| 20260902040516 | 85 | 0.0 | 0.0 | 0.00 | 0.00 | 0.00 | 59 | 1014.2 | |
| 20260902035516 | 85 | 0.0 | 0.0 | 0.00 | 0.00 | 0.00 | 59 | 1014.1 | |
| 20260902034515 | 85 | 0.0 | 0.0 | 0.00 | 0.00 | 0.00 | 59 | 1014.2 | |
| 20260902033516 | 85 | 0.0 | 0.0 | 0.00 | 0.00 | 0.00 | 59 | 1014.0 | |
| 20260902032516 | 84 | 0.0 | 0.0 | 0.00 | 0.00 | 0.00 | 61 | 1014.0 | |
| 20260902031515 | 83 | 113 | 1.0 | 3.0 | 0.00 | 0.00 | 0.00 | 61 | 1013.8 |
| 20260902030516 | 83 | 113 | 2.0 | 3.0 | 0.00 | 0.00 | 0.00 | 61 | 1013.7 |
| 20260902025536 | 84 | 113 | 2.0 | 3.0 | 0.00 | 0.00 | 0.00 | 60 | 1013.5 |
| 20260902024516 | 85 | 113 | 2.0 | 3.0 | 0.00 | 0.00 | 0.00 | 58 | 1013.5 |
| 20260902023516 | 86 | 113 | 1.0 | 2.0 | 0.00 | 0.00 | 0.00 | 56 | 1013.4 |
| 20260902022515 | 87 | 0.0 | 0.0 | 0.00 | 0.00 | 0.00 | 55 | 1013.2 | |
| 20260902021515 | 88 | 0.0 | 0.0 | 0.00 | 0.00 | 0.00 | 54 | 1013.0 | |
| 20260902020515 | 88 | 0.0 | 0.0 | 0.00 | 0.00 | 0.00 | 53 | 1012.8 | |
| 20260902015515 | 88 | 0.0 | 1.0 | 0.00 | 0.00 | 0.00 | 53 | 1012.6 | |
| 20260902014517 | 89 | 0.0 | 1.0 | 0.00 | 0.00 | 0.00 | 52 | 1012.4 | |
| 20260902013517 | 89 | 113 | 1.0 | 3.0 | 0.00 | 0.00 | 0.00 | 51 | 1012.2 |
| 20260902012517 | 90 | 90 | 2.0 | 4.0 | 0.00 | 0.00 | 0.00 | 50 | 1012.0 |
| 20260902011517 | 91 | 113 | 3.0 | 4.0 | 0.00 | 0.00 | 0.00 | 49 | 1011.9 |
| 20260902010517 | 92 | 113 | 3.0 | 6.0 | 0.00 | 0.00 | 0.00 | 48 | 1012.0 |
| 20260902005517 | 93 | 113 | 3.0 | 6.0 | 0.00 | 0.00 | 0.00 | 47 | 1011.7 |
| 20260902004517 | 93 | 113 | 5.0 | 8.0 | 0.00 | 0.00 | 0.00 | 46 | 1011.8 |
| 20260902003517 | 94 | 135 | 4.0 | 8.0 | 0.00 | 0.00 | 0.00 | 45 | 1011.9 |
| 20260902002517 | 95 | 135 | 6.0 | 8.0 | 0.00 | 0.00 | 0.00 | 44 | 1012.0 |
| 20260902001517 | 96 | 135 | 6.0 | 11.0 | 0.00 | 0.00 | 0.00 | 43 | 1012.2 |
| 20260902000517 | 96 | 113 | 7.0 | 12.0 | 0.00 | 0.00 | 0.00 | 42 | 1012.2 |
| 20260901235517 | 96 | 135 | 7.0 | 11.0 | 0.00 | 0.00 | 0.00 | 42 | 1012.2 |
| 20260901234537 | 97 | 135 | 7.0 | 14.0 | 0.00 | 0.00 | 0.00 | 42 | 1012.3 |
| 20260901233517 | 97 | 113 | 7.0 | 10.0 | 0.00 | 0.00 | 0.00 | 41 | 1012.4 |
| 20260901232516 | 97 | 135 | 7.0 | 12.0 | 0.00 | 0.00 | 0.00 | 41 | 1012.4 |
| 20260901231537 | 98 | 135 | 7.0 | 13.0 | 0.00 | 0.00 | 0.00 | 41 | 1012.5 |
| 20260901230516 | 98 | 113 | 8.0 | 12.0 | 0.00 | 0.00 | 0.00 | 41 | 1012.6 |
| 20260901225537 | 98 | 135 | 9.0 | 14.0 | 0.00 | 0.00 | 0.00 | 41 | 1012.6 |
| 20260901224517 | 98 | 158 | 6.0 | 9.0 | 0.00 | 0.00 | 0.00 | 41 | 1012.5 |
| 20260901223516 | 98 | 135 | 7.0 | 10.0 | 0.00 | 0.00 | 0.00 | 41 | 1012.5 |
| 20260901222517 | 99 | 135 | 10.0 | 14.0 | 0.00 | 0.00 | 0.00 | 40 | 1012.6 |
| 20260901221516 | 99 | 135 | 5.0 | 10.0 | 0.00 | 0.00 | 0.00 | 40 | 1012.7 |
| 20260901220517 | 99 | 135 | 9.0 | 12.0 | 0.00 | 0.00 | 0.00 | 40 | 1012.8 |
| 20260901215516 | 99 | 135 | 5.0 | 11.0 | 0.00 | 0.00 | 0.00 | 39 | 1012.8 |
| 20260901214516 | 98 | 135 | 8.0 | 14.0 | 0.00 | 0.00 | 0.00 | 41 | 1012.8 |
| 20260901213537 | 99 | 135 | 10.0 | 16.0 | 0.00 | 0.00 | 0.00 | 41 | 1012.8 |
| 20260901212516 | 98 | 90 | 6.0 | 12.0 | 0.00 | 0.00 | 0.00 | 41 | 1012.9 |
| 20260901211516 | 97 | 135 | 8.0 | 11.0 | 0.00 | 0.00 | 0.00 | 43 | 1013.0 |
| 20260901210516 | 98 | 113 | 11.0 | 16.0 | 0.00 | 0.00 | 0.00 | 42 | 1013.2 |
| 20260901205516 | 97 | 90 | 8.0 | 13.0 | 0.00 | 0.00 | 0.00 | 44 | 1013.1 |
| 20260901204516 | 98 | 90 | 10.0 | 15.0 | 0.00 | 0.00 | 0.00 | 43 | 1013.3 |
| 20260901203516 | 99 | 135 | 9.0 | 19.0 | 0.00 | 0.00 | 0.00 | 42 | 1013.4 |
| 20260901202516 | 99 | 113 | 7.0 | 13.0 | 0.00 | 0.00 | 0.00 | 42 | 1013.5 |
| 20260901201516 | 99 | 135 | 10.0 | 16.0 | 0.00 | 0.00 | 0.00 | 41 | 1013.7 |
| 20260901200537 | 99 | 90 | 8.0 | 14.0 | 0.00 | 0.00 | 0.00 | 42 | 1013.7 |
| 20260901195516 | 100 | 135 | 8.0 | 14.0 | 0.00 | 0.00 | 0.00 | 41 | 1013.9 |
| 20260901194516 | 100 | 180 | 7.0 | 12.0 | 0.00 | 0.00 | 0.00 | 41 | 1014.0 |
| 20260901193516 | 99 | 113 | 3.0 | 11.0 | 0.00 | 0.00 | 0.00 | 41 | 1014.0 |
| 20260901192516 | 99 | 135 | 5.0 | 12.0 | 0.00 | 0.00 | 0.00 | 41 | 1014.2 |
| 20260901191516 | 98 | 203 | 4.0 | 8.0 | 0.00 | 0.00 | 0.00 | 42 | 1014.2 |
| 20260901190516 | 98 | 135 | 3.0 | 7.0 | 0.00 | 0.00 | 0.00 | 44 | 1014.5 |
| 20260901185516 | 98 | 158 | 6.0 | 14.0 | 0.00 | 0.00 | 0.00 | 43 | 1014.6 |
| 20260901184516 | 97 | 135 | 8.0 | 12.0 | 0.00 | 0.00 | 0.00 | 45 | 1014.7 |
| 20260901183516 | 98 | 180 | 6.0 | 11.0 | 0.00 | 0.00 | 0.00 | 45 | 1015.0 |
| 20260901182516 | 97 | 180 | 6.0 | 11.0 | 0.00 | 0.00 | 0.00 | 45 | 1015.0 |
| 20260901181516 | 96 | 135 | 7.0 | 14.0 | 0.00 | 0.00 | 0.00 | 47 | 1015.3 |
| 20260901180535 | 96 | 135 | 6.0 | 13.0 | 0.00 | 0.00 | 0.00 | 47 | 1015.4 |
| 20260901175516 | 95 | 135 | 3.0 | 10.0 | 0.00 | 0.00 | 0.00 | 49 | 1015.5 |
| 20260901174516 | 97 | 158 | 6.0 | 10.0 | 0.00 | 0.00 | 0.00 | 46 | 1015.7 |
| 20260901173516 | 97 | 135 | 9.0 | 15.0 | 0.00 | 0.00 | 0.00 | 46 | 1015.8 |
| 20260901172556 | 96 | 135 | 3.0 | 11.0 | 0.00 | 0.00 | 0.00 | 48 | 1015.9 |
| 20260901171535 | 96 | 135 | 5.0 | 11.0 | 0.00 | 0.00 | 0.00 | 47 | 1016.1 |
| 20260901170536 | 96 | 113 | 8.0 | 11.0 | 0.00 | 0.00 | 0.00 | 47 | 1016.2 |
| 20260901165515 | 96 | 225 | 3.0 | 9.0 | 0.00 | 0.00 | 0.00 | 48 | 1016.3 |
| 20260901164516 | 96 | 180 | 2.0 | 7.0 | 0.00 | 0.00 | 0.00 | 49 | 1016.5 |
| 20260901163516 | 96 | 225 | 4.0 | 9.0 | 0.00 | 0.00 | 0.00 | 49 | 1016.5 |
| 20260901162515 | 96 | 180 | 2.0 | 6.0 | 0.00 | 0.00 | 0.00 | 50 | 1016.5 |
| 20260901161515 | 95 | 135 | 3.0 | 7.0 | 0.00 | 0.00 | 0.00 | 50 | 1016.6 |
| 20260901160517 | 94 | 270 | 3.0 | 8.0 | 0.00 | 0.00 | 0.00 | 52 | 1016.7 |
| 20260901155517 | 94 | 203 | 4.0 | 13.0 | 0.00 | 0.00 | 0.00 | 51 | 1016.7 |
| 20260901154517 | 94 | 203 | 4.0 | 7.0 | 0.00 | 0.00 | 0.00 | 52 | 1016.6 |
| 20260901153517 | 93 | 225 | 2.0 | 6.0 | 0.00 | 0.00 | 0.00 | 53 | 1016.5 |